GW7200 Weather Reports


time (UTC)temp
C
wind
direction
speed
KPH
gust
KPH
rain 1hr
cm
rain 24hr
cm
rain mn
cm
humidity
%
barometer
mb
20260906113824 21 48 3.2 3.2 0.00 0.00 0.00 93 1014.3
20260906113323 21 4 1.6 1.6 0.00 0.00 0.00 93 1014.1
20260906112818 21 356 1.6 3.2 0.00 0.00 0.00 93 1014.0
20260906112315 21 1 3.2 3.2 0.00 0.00 0.00 93 1014.1
20260906111814 21 3 3.2 3.2 0.00 0.00 0.00 93 1014.1
20260906111314 21 23 1.6 4.8 0.00 0.00 0.00 93 1013.9
20260906110809 21 6 3.2 4.8 0.00 0.00 0.00 93 1013.7
20260906110305 21 0 1.6 9.7 0.00 0.00 0.00 93 1013.8
20260906105803 21 357 3.2 4.8 0.00 0.00 0.00 93 1013.9
20260906105259 21 15 3.2 3.2 0.00 0.00 0.00 93 1013.8
20260906104755 21 17 3.2 3.2 0.00 0.00 0.00 93 1013.9
20260906104253 21 40 0.0 0.0 0.00 0.00 0.00 93 1013.6
20260906103752 21 354 0.0 1.6 0.00 0.00 0.00 93 1013.5
20260906103251 21 353 1.6 1.6 0.00 0.00 0.00 93 1013.3
20260906102748 21 347 4.8 4.8 0.00 0.00 0.00 93 1013.3
20260906102246 21 352 3.2 3.2 0.00 0.00 0.00 93 1013.4
20260906101741 21 7 0.0 1.6 0.00 0.00 0.00 92 1013.4
20260906101236 21 5 3.2 3.2 0.00 0.00 0.00 92 1013.4
20260906100732 21 7 1.6 1.6 0.00 0.00 0.00 92 1013.3
20260906100231 21 4 1.6 3.2 0.00 0.00 0.00 92 1013.2
20260906095727 21 10 1.6 1.6 0.00 0.00 0.00 92 1013.3
20260906095222 21 5 1.6 4.8 0.00 0.00 0.00 92 1013.1
20260906094721 21 349 4.8 4.8 0.00 0.00 0.00 91 1013.3
20260906094216 21 353 1.6 1.6 0.00 0.00 0.00 91 1013.2
20260906093713 21 353 1.6 1.6 0.00 0.00 0.00 91 1013.3
20260906093208 21 11 1.6 1.6 0.00 0.00 0.00 91 1013.1
20260906092703 21 354 4.8 4.8 0.00 0.00 0.00 92 1013.2
20260906092202 21 359 1.6 3.2 0.00 0.00 0.00 92 1013.3
20260906091658 21 7 1.6 3.2 0.00 0.00 0.00 92 1013.0
20260906091155 21 5 0.0 1.6 0.00 0.00 0.00 91 1013.2
20260906090651 21 5 0.0 1.6 0.00 0.00 0.00 91 1013.4
20260906090150 21 5 0.0 1.6 0.00 0.00 0.00 91 1013.1
20260906085649 21 6 1.6 1.6 0.00 0.00 0.00 91 1013.1
20260906085148 21 6 0.0 0.0 0.00 0.00 0.00 91 1012.9
20260906084643 21 6 1.6 1.6 0.00 0.00 0.00 91 1012.9
20260906084142 21 2 1.6 1.6 0.00 0.00 0.00 91 1012.8
20260906083638 21 1 0.0 0.0 0.00 0.00 0.00 90 1012.9
20260906083133 21 359 0.0 0.0 0.00 0.00 0.00 91 1012.6
20260906082628 21 0 1.6 3.2 0.00 0.00 0.00 90 1012.8
20260906082124 22 321 1.6 3.2 0.00 0.00 0.00 89 1012.8
20260906081620 22 227 0.0 0.0 0.00 0.00 0.00 89 1012.8
20260906081115 22 224 0.0 0.0 0.00 0.00 0.00 88 1012.6
20260906080611 22 222 0.0 0.0 0.00 0.00 0.00 88 1012.6
20260906080107 22 222 0.0 0.0 0.00 0.00 0.00 88 1012.9
20260906075607 22 222 0.0 0.0 0.00 0.00 0.00 88 1013.0
20260906075101 22 222 0.0 0.0 0.00 0.00 0.00 88 1013.1
20260906074557 22 222 0.0 0.0 0.00 0.00 0.00 87 1012.9
20260906074055 23 222 0.0 1.6 0.00 0.00 0.00 86 1013.0
20260906073550 23 221 0.0 0.0 0.00 0.00 0.00 85 1013.1
20260906073047 23 221 0.0 0.0 0.00 0.00 0.00 84 1013.0
20260906072546 23 221 0.0 0.0 0.00 0.00 0.00 84 1013.0
20260906072043 23 221 1.6 1.6 0.00 0.00 0.00 84 1013.1
20260906071539 23 222 0.0 0.0 0.00 0.00 0.00 83 1013.2
20260906071033 23 222 0.0 0.0 0.00 0.00 0.00 83 1013.2
20260906070530 23 222 3.2 3.2 0.00 0.00 0.00 82 1013.3
20260906070025 23 238 4.8 6.4 0.00 0.00 0.00 82 1013.4
20260906065525 23 233 4.8 9.7 0.00 0.00 0.00 81 1013.2
20260906065021 23 250 3.2 3.2 0.00 0.00 0.00 80 1013.1
20260906064516 23 30 1.6 1.6 0.00 0.00 0.00 80 1013.1
20260906064011 23 50 4.8 9.7 0.00 0.00 0.00 80 1013.4
20260906063507 23 21 1.6 4.8 0.00 0.00 0.00 81 1013.1
20260906063002 24 24 3.2 1.6 0.00 0.00 0.00 79 1013.2
20260906062456 24 41 4.8 4.8 0.00 0.00 0.00 78 1013.4
20260906061951 24 64 3.2 4.8 0.00 0.00 0.00 78 1013.3
20260906061442 24 79 1.6 1.6 0.00 0.00 0.00 78 1013.3
20260906060941 24 50 6.4 9.7 0.00 0.00 0.00 78 1013.4
20260906060438 24 41 3.2 3.2 0.00 0.00 0.00 78 1013.1
20260906055935 25 46 6.4 9.7 0.00 0.00 0.00 77 1013.3
20260906055430 24 66 6.4 6.4 0.00 0.00 0.00 78 1013.4
20260906054926 24 59 4.8 9.7 0.00 0.00 0.00 79 1013.4
20260906054420 24 48 4.8 6.4 0.00 0.00 0.00 79 1013.2
20260906053916 24 45 6.4 6.4 0.00 0.00 0.00 79 1013.3
20260906053412 24 61 4.8 6.4 0.00 0.00 0.00 80 1013.1
20260906052908 25 12 1.6 3.2 0.00 0.00 0.00 79 1013.5
20260906052404 25 43 4.8 6.4 0.00 0.00 0.00 78 1013.7
20260906051901 25 68 3.2 4.8 0.00 0.00 0.00 78 1013.4
20260906051400 25 57 3.2 9.7 0.00 0.00 0.00 78 1013.5
20260906050856 25 73 4.8 6.4 0.00 0.00 0.00 78 1013.6
20260906050351 25 76 3.2 9.7 0.00 0.00 0.00 79 1013.6
20260906045850 25 71 4.8 4.8 0.00 0.00 0.00 79 1013.5
20260906045349 25 68 3.2 4.8 0.00 0.00 0.00 80 1013.7
20260906044846 24 39 0.0 1.6 0.00 0.00 0.00 83 1014.0
20260906044345 24 19 1.6 1.6 0.00 0.00 0.00 85 1013.9
20260906043841 24 19 0.0 0.0 0.00 0.00 0.00 84 1013.8
20260906043337 25 20 0.0 1.6 0.00 0.00 0.00 84 1013.8
20260906042832 25 20 1.6 3.2 0.00 0.00 0.00 82 1013.7
20260906042331 25 350 1.6 1.6 0.00 0.00 0.00 84 1013.8
20260906041827 25 31 1.6 4.8 0.00 0.00 0.00 85 1014.1
20260906041322 25 326 1.6 1.6 0.00 0.00 0.00 84 1013.7
20260906040822 25 274 0.0 1.6 0.00 0.00 0.00 83 1013.9
20260906040318 25 262 8.0 11.3 0.00 0.00 0.00 82 1013.5
20260906035813 25 3 0.0 1.6 0.00 0.00 0.00 82 1013.5
20260906035308 25 35 6.4 9.7 0.00 0.00 0.00 81 1013.3
20260906034804 25 71 3.2 4.8 0.00 0.00 0.00 84 1013.2
20260906034303 24 8 3.2 4.8 0.00 0.00 0.00 86 1013.2
20260906033759 23 45 3.2 4.8 0.00 0.00 0.00 89 1013.1
20260906033259 24 359 4.8 6.4 0.00 0.00 0.00 89 1013.0
20260906032755 25 44 1.6 1.6 0.00 0.00 0.00 88 1012.5
20260906032255 25 45 1.6 1.6 0.00 0.00 0.00 85 1012.6
20260906031751 25 48 0.0 0.0 0.00 0.00 0.00 84 1012.8
20260906031247 26 50 1.6 1.6 0.00 0.00 0.00 83 1012.5
20260906030746 25 56 1.6 1.6 0.00 0.00 0.00 83 1012.5
20260906030241 26 55 0.0 0.0 0.00 0.00 0.00 82 1012.6
20260906025741 26 56 0.0 1.6 0.00 0.00 0.00 82 1012.6
20260906025235 26 53 0.0 3.2 0.00 0.00 0.00 83 1013.0
20260906024734 25 73 3.2 4.8 0.00 0.00 0.00 84 1013.1
20260906024233 25 59 3.2 4.8 0.00 0.00 0.00 86 1013.0
20260906023729 26 353 0.0 0.0 0.00 0.00 0.00 84 1012.8
20260906023225 26 352 0.0 0.0 0.00 0.00 0.00 84 1013.0
20260906022720 26 352 0.0 1.6 0.00 0.00 0.00 83 1012.9
20260906022215 26 353 0.0 0.0 0.00 0.00 0.00 82 1012.8
20260906021711 26 353 0.0 0.0 0.00 0.00 0.00 82 1012.6
20260906021210 26 352 0.0 0.0 0.00 0.00 0.00 82 1012.6
20260906020705 26 353 0.0 0.0 0.00 0.00 0.00 82 1012.4
20260906020200 26 353 1.6 1.6 0.00 0.00 0.00 82 1012.6
20260906015700 26 351 0.0 0.0 0.00 0.00 0.00 83 1012.6
20260906015158 25 352 0.0 0.0 0.00 0.00 0.00 85 1012.4
20260906014658 26 351 1.6 1.6 0.00 0.00 0.00 85 1012.6
20260906014155 26 9 0.0 0.0 0.00 0.00 0.00 82 1012.5
20260906013650 26 9 0.0 1.6 0.00 0.00 0.00 83 1012.4
20260906013145 26 10 1.6 1.6 0.00 0.00 0.00 83 1012.4
20260906012646 26 10 0.0 0.0 0.00 0.00 0.00 84 1012.2
20260906012145 26 10 1.6 3.2 0.00 0.00 0.00 85 1012.1
20260906011641 26 252 0.0 1.6 0.00 0.00 0.00 86 1012.1
20260906011136 26 243 0.0 1.6 0.00 0.00 0.00 84 1012.1
20260906010631 27 242 1.6 1.6 0.00 0.00 0.00 82 1012.1
20260906010128 27 242 0.0 0.0 0.00 0.00 0.00 81 1012.0
20260906005627 27 242 1.6 1.6 0.00 0.00 0.00 80 1012.0
20260906005127 28 330 1.6 1.6 0.00 0.00 0.00 78 1012.0
20260906004626 28 331 0.0 0.0 0.00 0.00 0.00 77 1011.6
20260906004121 28 330 0.0 0.0 0.00 0.00 0.00 77 1011.6
20260906003616 28 330 0.0 0.0 0.00 0.00 0.00 77 1011.7
20260906003113 28 330 0.0 0.0 0.00 0.00 0.00 76 1011.7
20260906002612 28 330 0.0 0.0 0.00 0.00 0.00 77 1011.7
20260906002107 28 329 1.6 1.6 0.00 0.00 0.00 74 1012.1
20260906001603 28 281 0.0 0.0 0.00 0.00 0.00 72 1012.2
20260906001102 29 279 0.0 0.0 0.00 0.00 0.00 72 1012.4
20260906000559 30 279 1.6 1.6 0.00 0.00 0.00 71 1012.4
20260906000054 30 283 0.0 1.6 0.00 0.00 0.00 69 1012.4
20260905235553 30 1 0.0 0.0 0.00 0.00 0.00 67 1012.6
20260905235048 30 1 0.0 0.0 0.00 0.00 0.00 63 1012.3
20260905234543 31 1 0.0 1.6 0.00 0.00 0.00 64 1012.8
20260905234039 31 1 0.0 0.0 0.00 0.00 0.00 59 1012.6
20260905233538 31 1 1.6 1.6 0.00 0.00 0.00 59 1012.6
20260905233038 31 0 1.6 1.6 0.00 0.00 0.00 59 1012.5
20260905232534 31 0 1.6 1.6 0.00 0.00 0.00 59 1012.6
20260905232029 31 0 0.0 0.0 0.00 0.00 0.00 60 1012.8
20260905231524 31 359 0.0 0.0 0.00 0.00 0.00 61 1012.9
20260905231021 31 359 0.0 1.6 0.00 0.00 0.00 58 1012.9
20260905230520 31 359 0.0 1.6 0.00 0.00 0.00 56 1012.6
20260905230018 32 359 1.6 1.6 0.00 0.00 0.00 55 1012.4
20260905225513 32 0 1.6 1.6 0.00 0.00 0.00 56 1012.5
20260905225009 32 358 1.6 1.6 0.00 0.00 0.00 55 1012.2
20260905224503 32 357 1.6 1.6 0.00 0.00 0.00 55 1012.3
20260905224002 32 20 0.0 1.6 0.00 0.00 0.00 55 1012.4
20260905223500 32 19 0.0 1.6 0.00 0.00 0.00 54 1012.5
20260905222955 33 15 1.6 1.6 0.00 0.00 0.00 54 1012.6
20260905222455 33 14 0.0 0.0 0.00 0.00 0.00 53 1012.5
20260905221951 33 10 1.6 4.8 0.00 0.00 0.00 52 1012.6
20260905221447 33 6 1.6 1.6 0.00 0.00 0.00 52 1012.3
20260905220943 33 6 3.2 3.2 0.00 0.00 0.00 52 1012.4
20260905220439 34 324 0.0 1.6 0.00 0.00 0.00 51 1012.5
20260905215938 33 323 0.0 1.6 0.00 0.00 0.00 51 1012.3
20260905215434 33 34 4.8 9.7 0.00 0.00 0.00 49 1012.4
20260905214930 34 346 4.8 4.8 0.00 0.00 0.00 49 1012.6
20260905214426 34 20 4.8 4.8 0.00 0.00 0.00 48 1012.5
20260905213926 34 329 1.6 1.6 0.00 0.00 0.00 48 1012.2
20260905213422 35 303 1.6 1.6 0.00 0.00 0.00 48 1012.4
20260905212917 35 333 1.6 3.2 0.00 0.00 0.00 49 1012.3
20260905212412 35 5 1.6 1.6 0.00 0.00 0.00 46 1012.3
20260905211911 35 306 1.6 1.6 0.00 0.00 0.00 46 1012.1
20260905211407 35 5 0.0 1.6 0.00 0.00 0.00 48 1012.6
20260905210903 35 342 1.6 3.2 0.00 0.00 0.00 50 1012.5
20260905210403 34 244 0.0 3.2 0.00 0.00 0.00 46 1012.3
20260905205902 34 357 0.0 4.8 0.00 0.00 0.00 49 1012.6
20260905205357 35 20 6.4 6.4 0.00 0.00 0.00 46 1012.5
20260905204855 35 356 3.2 4.8 0.00 0.00 0.00 47 1012.4
20260905204352 35 15 1.6 3.2 0.00 0.00 0.00 48 1012.4
20260905203850 35 13 1.6 4.8 0.00 0.00 0.00 49 1012.5
20260905203347 35 320 1.6 3.2 0.00 0.00 0.00 47 1012.8
20260905202843 35 263 12.9 14.5 0.00 0.00 0.00 47 1012.5
20260905202343 35 287 3.2 3.2 0.00 0.00 0.00 47 1012.6
20260905201839 35 359 0.0 3.2 0.00 0.00 0.00 46 1012.9
20260905201334 35 339 4.8 4.8 0.00 0.00 0.00 47 1013.0
20260905200833 35 354 3.2 6.4 0.00 0.00 0.00 47 1013.0
20260905200330 35 1 1.6 4.8 0.00 0.00 0.00 46 1013.1
20260905195827 35 339 1.6 3.2 0.00 0.00 0.00 44 1013.2
20260905195323 35 12 3.2 3.2 0.00 0.00 0.00 45 1013.2
20260905194819 35 107 1.6 3.2 0.00 0.00 0.00 45 1013.4
20260905194318 35 273 1.6 4.8 0.00 0.00 0.00 44 1013.2
20260905193818 34 150 1.6 3.2 0.00 0.00 0.00 45 1013.4
20260905193313 34 108 1.6 4.8 0.00 0.00 0.00 44 1013.5
20260905192808 34 288 4.8 6.4 0.00 0.00 0.00 44 1013.5
20260905192306 35 218 8.0 9.7 0.00 0.00 0.00 43 1013.7
20260905191803 35 183 3.2 6.4 0.00 0.00 0.00 44 1013.8
20260905191302 34 21 0.0 1.6 0.00 0.00 0.00 48 1013.5
20260905190801 35 235 6.4 11.3 0.00 0.00 0.00 45 1013.6
20260905190300 34 275 3.2 3.2 0.00 0.00 0.00 45 1013.8
20260905185759 34 40 3.2 4.8 0.00 0.00 0.00 46 1013.9
20260905185254 35 250 6.4 6.4 0.00 0.00 0.00 44 1013.9
20260905184748 34 278 3.2 9.7 0.00 0.00 0.00 44 1014.0
20260905184248 33 242 9.7 11.3 0.00 0.00 0.00 45 1014.1
20260905183747 33 103 3.2 3.2 0.00 0.00 0.00 45 1014.2
20260905183243 33 220 9.7 11.3 0.00 0.00 0.00 46 1014.3
20260905182742 33 143 1.6 3.2 0.00 0.00 0.00 46 1014.4
20260905182242 33 105 1.6 6.4 0.00 0.00 0.00 47 1014.3
20260905181737 32 131 6.4 6.4 0.00 0.00 0.00 48 1014.4
20260905181236 32 268 4.8 6.4 0.00 0.00 0.00 49 1014.6
20260905180731 32 136 6.4 6.4 0.00 0.00 0.00 49 1014.5
20260905180227 32 247 6.4 9.7 0.00 0.00 0.00 48 1014.6
20260905175726 32 224 9.7 11.3 0.00 0.00 0.00 49 1014.6
20260905175221 32 181 8.0 9.7 0.00 0.00 0.00 48 1014.7
20260905174716 32 218 1.6 9.7 0.00 0.00 0.00 50 1014.7
20260905174212 31 145 1.6 12.9 0.00 0.00 0.00 51 1014.7
20260905173708 32 236 6.4 11.3 0.00 0.00 0.00 51 1014.7
20260905173204 31 118 3.2 4.8 0.00 0.00 0.00 51 1014.8
20260905172703 31 210 3.2 9.7 0.00 0.00 0.00 51 1014.8
20260905172203 32 248 9.7 11.3 0.00 0.00 0.00 50 1014.8
20260905171659 31 126 3.2 6.4 0.00 0.00 0.00 50 1015.0
20260905171155 32 174 3.2 9.7 0.00 0.00 0.00 49 1014.9
20260905170652 31 113 6.4 6.4 0.00 0.00 0.00 51 1015.0
20260905170146 31 196 4.8 11.3 0.00 0.00 0.00 51 1014.8
20260905165646 31 191 11.3 11.3 0.00 0.00 0.00 51 1015.3
20260905165141 31 112 0.0 4.8 0.00 0.00 0.00 53 1015.1
20260905164636 31 100 6.4 9.7 0.00 0.00 0.00 53 1015.3
20260905164135 30 149 1.6 4.8 0.00 0.00 0.00 54 1015.4
20260905163632 30 159 3.2 6.4 0.00 0.00 0.00 57 1015.1
20260905163128 30 201 6.4 11.3 0.00 0.00 0.00 57 1015.0
20260905162624 30 205 4.8 11.3 0.00 0.00 0.00 56 1015.2
20260905162123 30 192 9.7 12.9 0.00 0.00 0.00 58 1015.2
20260905161623 29 165 8.0 14.5 0.00 0.00 0.00 59 1015.2
20260905161121 29 190 8.0 9.7 0.00 0.00 0.00 57 1015.2
20260905160620 29 233 3.2 11.3 0.00 0.00 0.00 61 1015.3
20260905160115 29 169 3.2 11.3 0.00 0.00 0.00 59 1015.4
20260905155609 30 205 6.4 12.9 0.00 0.00 0.00 59 1015.5
20260905155108 28 194 9.7 12.9 0.00 0.00 0.00 60 1015.6
20260905154608 29 144 4.8 9.7 0.00 0.00 0.00 60 1015.8
20260905154104 28 154 6.4 9.7 0.00 0.00 0.00 61 1015.7
20260905153559 28 180 9.7 11.3 0.00 0.00 0.00 60 1015.8
20260905153054 28 104 8.0 11.3 0.00 0.00 0.00 59 1015.8
20260905152549 28 77 3.2 6.4 0.00 0.00 0.00 60 1015.8
20260905152044 28 63 8.0 11.3 0.00 0.00 0.00 61 1015.9
20260905151539 28 94 3.2 11.3 0.00 0.00 0.00 61 1016.0
20260905151034 27 113 3.2 4.8 0.00 0.00 0.00 62 1015.8
20260905150529 27 42 6.4 9.7 0.00 0.00 0.00 65 1016.0
20260905150028 27 158 3.2 3.2 0.00 0.00 0.00 65 1016.0
20260905145526 27 65 3.2 9.7 0.00 0.00 0.00 63 1016.0
20260905145026 27 66 4.8 14.5 0.00 0.00 0.00 62 1016.0
20260905144521 28 134 9.7 12.9 0.00 0.00 0.00 61 1016.1
20260905144020 28 196 3.2 4.8 0.00 0.00 0.00 62 1016.1
20260905143520 27 84 6.4 12.9 0.00 0.00 0.00 62 1016.0
20260905143015 27 93 4.8 12.9 0.00 0.00 0.00 66 1016.3
20260905142514 27 102 6.4 11.3 0.00 0.00 0.00 67 1016.2
20260905142009 26 87 3.2 6.4 0.00 0.00 0.00 69 1015.9
20260905141509 26 68 8.0 11.3 0.00 0.00 0.00 70 1016.3
20260905141006 26 51 6.4 12.9 0.00 0.00 0.00 71 1016.4
20260905140500 25 50 11.3 12.9 0.00 0.00 0.00 72 1016.1
20260905135959 25 44 9.7 22.5 0.00 0.00 0.00 73 1016.3
20260905135455 25 45 17.7 20.9 0.00 0.00 0.00 73 1016.3
20260905134950 25 58 8.0 14.5 0.00 0.00 0.00 75 1016.4
20260905134449 24 307 4.8 12.9 0.00 0.00 0.00 77 1016.3
20260905133949 23 54 4.8 12.9 0.00 0.00 0.00 78 1016.3
20260905133444 23 15 4.8 9.7 0.00 0.00 0.00 79 1016.2
20260905132943 23 65 14.5 17.7 0.00 0.00 0.00 80 1016.5
20260905132439 22 50 6.4 9.7 0.00 0.00 0.00 80 1016.5
20260905131933 22 10 8.0 12.9 0.00 0.00 0.00 79 1016.5
20260905131429 23 64 9.7 12.9 0.00 0.00 0.00 78 1016.4
20260905130924 23 59 11.3 12.9 0.00 0.00 0.00 77 1016.7
20260905130423 23 42 9.7 17.7 0.00 0.00 0.00 76 1016.6
20260905125923 23 64 9.7 16.1 0.00 0.00 0.00 75 1016.4
20260905125418 23 43 6.4 22.5 0.00 0.00 0.00 76 1016.6
20260905124914 23 36 8.0 22.5 0.00 0.00 0.00 77 1016.7
20260905124410 23 7 6.4 9.7 0.00 0.00 0.00 79 1016.8
20260905123910 23 2 4.8 4.8 0.00 0.00 0.00 77 1016.2
20260905123407 23 25 4.8 6.4 0.00 0.00 0.00 77 1016.0
20260905122902 23 13 3.2 3.2 0.00 0.00 0.00 77 1015.7
20260905122401 23 344 6.4 9.7 0.00 0.00 0.00 77 1015.8
20260905121857 23 339 11.3 14.5 0.00 0.00 0.00 77 1015.8
20260905121353 23 12 4.8 11.3 0.00 0.00 0.00 77 1016.0
20260905120852 23 54 6.4 6.4 0.00 0.00 0.00 78 1015.9
20260905120346 23 40 8.0 9.7 0.00 0.00 0.00 77 1015.9
20260905115841 23 45 9.7 12.9 0.00 0.00 0.00 77 1015.7
20260905115340 23 20 1.6 4.8 0.00 0.00 0.00 79 1015.9
20260905114835 24 29 3.2 11.3 0.00 0.00 0.00 78 1015.8
20260905114334 24 354 1.6 3.2 0.00 0.00 0.00 78 1015.7
20260905113834 24 37 3.2 4.8 0.00 0.00 0.00 80 1015.7